N100MB KFNL-KGXY

Flight info

Callsign N100MB
Flight time 0h 15m
Altitude 7500
Route DCT
Aircraft C172/L-SFG/C

Departure

Time 2026-05-06 21:11
Airport Northern Colorado Regional Airport (KFNL)

Arrival

Time 2026-05-06 21:26
Airport Greeley–Weld County Airport (KGXY)
Time Latitude Longitude Altitude Speed Heading
2026-05-06 21:00 40.44920 -105.00841 5000 ft 0 kts 46°
2026-05-06 21:06 40.44933 -105.00843 5000 ft 1 kts 292°
2026-05-06 21:06 40.44906 -105.00859 5000 ft 6 kts 264°
2026-05-06 21:07 40.44943 -105.00907 4992 ft 9 kts 280°
2026-05-06 21:07 40.44912 -105.00972 5000 ft 10 kts 183°
2026-05-06 21:07 40.44841 -105.00938 5000 ft 12 kts 164°
2026-05-06 21:07 40.44756 -105.00903 5000 ft 14 kts 169°
2026-05-06 21:08 40.44658 -105.00859 5000 ft 18 kts 162°
2026-05-06 21:08 40.44518 -105.00796 5000 ft 24 kts 159°
2026-05-06 21:08 40.44354 -105.00717 5000 ft 27 kts 159°
2026-05-06 21:08 40.44173 -105.00632 5001 ft 28 kts 164°
2026-05-06 21:09 40.44076 -105.00601 5001 ft 10 kts 220°
2026-05-06 21:09 40.44052 -105.00669 5001 ft 7 kts 251°
2026-05-06 21:09 40.44085 -105.00746 5001 ft 25 kts 341°
2026-05-06 21:09 40.44397 -105.00883 5002 ft 66 kts 339°
2026-05-06 21:10 40.44873 -105.01105 5067 ft 78 kts 336°
2026-05-06 21:10 40.45411 -105.01338 5186 ft 85 kts 338°
2026-05-06 21:10 40.45964 -105.01598 5377 ft 84 kts 337°
2026-05-06 21:10 40.46517 -105.01819 5580 ft 84 kts 342°
2026-05-06 21:11 40.47058 -105.01553 5721 ft 91 kts 52°
2026-05-06 21:11 40.47258 -105.00771 5922 ft 91 kts 90°
2026-05-06 21:11 40.47223 -104.99979 6174 ft 88 kts 97°
2026-05-06 21:11 40.47320 -104.99163 6355 ft 92 kts 76°
2026-05-06 21:12 40.47574 -104.98356 6482 ft 99 kts 68°
2026-05-06 21:12 40.47885 -104.97532 6626 ft 101 kts 67°
2026-05-06 21:12 40.48114 -104.96621 6713 ft 106 kts 76°
2026-05-06 21:12 40.48313 -104.95740 6984 ft 90 kts 69°
2026-05-06 21:13 40.48555 -104.94937 7088 ft 97 kts 68°
2026-05-06 21:13 40.48768 -104.94177 7302 ft 90 kts 75°
2026-05-06 21:13 40.48971 -104.93393 7454 ft 90 kts 76°
2026-05-06 21:13 40.49174 -104.92589 7579 ft 93 kts 69°
2026-05-06 21:14 40.49426 -104.91736 7639 ft 103 kts 73°
2026-05-06 21:14 40.49653 -104.90816 7715 ft 110 kts 73°
2026-05-06 21:14 40.49711 -104.89799 7772 ft 115 kts 99°
2026-05-06 21:14 40.49588 -104.88733 7804 ft 119 kts 103°
2026-05-06 21:15 40.49418 -104.87649 7799 ft 125 kts 104°
2026-05-06 21:15 40.49236 -104.86496 7704 ft 133 kts 103°
2026-05-06 21:15 40.49050 -104.85281 7586 ft 138 kts 103°
2026-05-06 21:15 40.48857 -104.84029 7463 ft 141 kts 104°
2026-05-06 21:16 40.48671 -104.82764 7346 ft 141 kts 103°
2026-05-06 21:16 40.48482 -104.81498 7220 ft 141 kts 103°
2026-05-06 21:16 40.48288 -104.80233 7102 ft 141 kts 103°
2026-05-06 21:16 40.48098 -104.78972 6968 ft 139 kts 104°
2026-05-06 21:17 40.47902 -104.77728 6847 ft 139 kts 104°
2026-05-06 21:17 40.47711 -104.76477 6725 ft 140 kts 104°
2026-05-06 21:17 40.47518 -104.75219 6604 ft 140 kts 105°
2026-05-06 21:17 40.47331 -104.73955 6472 ft 141 kts 104°
2026-05-06 21:18 40.47149 -104.72706 6350 ft 141 kts 103°
2026-05-06 21:18 40.46954 -104.71446 6215 ft 141 kts 104°
2026-05-06 21:18 40.46768 -104.70213 6196 ft 134 kts 104°
2026-05-06 21:18 40.46584 -104.69013 6192 ft 134 kts 103°
2026-05-06 21:19 40.46399 -104.67826 6193 ft 133 kts 105°
2026-05-06 21:19 40.46220 -104.66626 6191 ft 134 kts 105°
2026-05-06 21:19 40.45941 -104.65497 6290 ft 124 kts 124°
2026-05-06 21:19 40.45260 -104.65005 6350 ft 118 kts 180°
2026-05-06 21:20 40.44528 -104.64601 6391 ft 119 kts 122°
2026-05-06 21:20 40.44753 -104.63830 6303 ft 95 kts 355°
2026-05-06 21:20 40.45386 -104.63844 6089 ft 94 kts
2026-05-06 21:20 40.46001 -104.63791 5893 ft 88 kts 354°
2026-05-06 21:21 40.46584 -104.63836 5691 ft 82 kts
2026-05-06 21:21 40.46732 -104.63280 5266 ft 80 kts 165°
2026-05-06 21:21 40.46219 -104.63237 4964 ft 69 kts 185°
2026-05-06 21:21 40.45725 -104.63223 4752 ft 75 kts 187°
2026-05-06 21:22 40.45252 -104.63207 4677 ft 55 kts 176°
2026-05-06 21:22 40.44831 -104.63185 4688 ft 72 kts 175°
2026-05-06 21:22 40.44336 -104.63157 4844 ft 73 kts 179°
2026-05-06 21:22 40.43775 -104.63093 4955 ft 83 kts 178°
2026-05-06 21:23 40.43221 -104.63077 5182 ft 82 kts 181°
2026-05-06 21:23 40.42667 -104.63150 5418 ft 78 kts 223°
2026-05-06 21:23 40.42640 -104.63871 5537 ft 88 kts 285°
2026-05-06 21:23 40.43168 -104.64250 5628 ft 104 kts
2026-05-06 21:24 40.43897 -104.64180 5820 ft 105 kts 355°
2026-05-06 21:24 40.44586 -104.64159 6107 ft 95 kts 356°
2026-05-06 21:24 40.45245 -104.64218 6208 ft 100 kts 355°
2026-05-06 21:24 40.45953 -104.64203 6166 ft 99 kts
2026-05-06 21:25 40.46605 -104.64096 5979 ft 94 kts
2026-05-06 21:25 40.47094 -104.63691 5704 ft 91 kts 94°
2026-05-06 21:25 40.46620 -104.63256 5176 ft 92 kts 182°
2026-05-06 21:25 40.46043 -104.63241 4872 ft 77 kts 187°
2026-05-06 21:26 40.45551 -104.63217 4705 ft 65 kts 182°
2026-05-06 21:26 40.45170 -104.63204 4676 ft 49 kts 179°
2026-05-06 21:26 40.44710 -104.63175 4697 ft 78 kts 179°
2026-05-06 21:26 40.44150 -104.63157 4856 ft 81 kts 183°
2026-05-06 21:27 40.43599 -104.63237 5077 ft 79 kts 186°
2026-05-06 21:27 40.43049 -104.63354 5272 ft 80 kts 210°
2026-05-06 21:27 40.42809 -104.63957 5463 ft 84 kts 272°
2026-05-06 21:27 40.42972 -104.64715 5684 ft 85 kts 286°
2026-05-06 21:28 40.43146 -104.65423 5952 ft 79 kts 275°
2026-05-06 21:28 40.43362 -104.66050 6108 ft 87 kts 338°
2026-05-06 21:28 40.44044 -104.65982 6192 ft 101 kts
2026-05-06 21:28 40.44742 -104.65882 6229 ft 105 kts
2026-05-06 21:29 40.45494 -104.65846 6208 ft 109 kts 356°
2026-05-06 21:29 40.46237 -104.65818 6224 ft 100 kts
2026-05-06 21:29 40.46924 -104.65717 6030 ft 99 kts 23°
2026-05-06 21:29 40.47179 -104.64945 5780 ft 97 kts 92°
2026-05-06 21:30 40.47164 -104.64079 5467 ft 90 kts 94°
2026-05-06 21:30 40.46948 -104.63366 5145 ft 82 kts 154°
2026-05-06 21:30 40.46435 -104.63265 4898 ft 69 kts 180°
2026-05-06 21:30 40.45956 -104.63236 4783 ft 72 kts 182°
2026-05-06 21:31 40.45473 -104.63217 4685 ft 60 kts 179°
2026-05-06 21:31 40.45151 -104.63200 4676 ft 38 kts 171°
2026-05-06 21:31 40.44928 -104.63188 4673 ft 28 kts 179°
2026-05-06 21:31 40.44826 -104.63187 4673 ft 23 kts 179°